Emporia, VA

9:51 PM EST on December 15, 2019 (GMT -0500)
Emporia-Greensville Regional

Weather History for KEMV - October, 2019

Change the Weather History Date:

Wednesday, October 16, 2019

  Actual Average Record
Temperature  
Mean Temperature 58 °F -  
Max Temperature 64 °F 75 °F 90 °F (1985)
Min Temperature 50 °F 44 °F 31 °F (1987)
Degree Days  
Heating Degree Days 8    
Growing Degree Days 8 (Base 50)    
Moisture  
Dew Point 55 °F    
Average Humidity 91    
Maximum Humidity 100    
Minimum Humidity 59    
Precipitation  
Precipitation 0.50 in - - ()
Sea Level Pressure  
Sea Level Pressure 29.76 in    
Wind  
Wind Speed 3 mph (WSW)    
Max Wind Speed 12 mph    
Max Gust Speed 26 mph    
Visibility 8 miles    
Events      
Averages and records for this station are not official NWS values.
T = Trace of Precipitation, MM = Missing Value Source: NWS Daily Summary

Daily Weather History Graph

Daily Weather History Graph

Search for Another Location

Airport or City:

Astronomy

Oct. 16, 2019 Rise Set
Actual Time 7:17 AM EDT 6:32 PM EDT
Civil Twilight 6:51 AM EDT 6:58 PM EDT
Nautical Twilight 6:21 AM EDT 7:28 PM EDT
Astronomical Twilight 5:51 AM EDT 7:58 PM EDT
Moon 8:28 PM EDT 9:43 AM EDT
Length of Visible Light 12h 06m
Length of Day
11h 14m
Waning Gibbous, 93% of the Moon is Illuminated
Oct 16
Waning Gibbous
Oct 21
Last Quarter
Oct 27
New
Nov 4
First Quarter
Nov 12
Full

Hourly Weather History & Observations

Time (EDT) Temp. Dew Point Humidity Pressure Visibility Wind Dir Wind Speed Gust Speed Precip Events Conditions
12:15 AM 57.2 °F 56.3 °F 97% 30.03 in 10.0 mi East 4.6 mph - N/A   Scattered Clouds
12:35 AM 57.6 °F 56.3 °F 96% 30.02 in 10.0 mi ESE 4.6 mph - N/A   Clear
12:55 AM 57.2 °F 55.6 °F 94% 30.02 in 10.0 mi Calm Calm - N/A   Clear
1:15 AM 55.8 °F 55.0 °F 97% 30.02 in 7.0 mi Calm Calm - N/A   Clear
1:35 AM 55.2 °F 54.7 °F 98% 30.01 in - Calm Calm - N/A   Unknown
1:55 AM 53.8 °F 52.7 °F 96% 30.01 in 10.0 mi Calm Calm - N/A   Clear
2:15 AM 53.6 °F 53.2 °F 99% 30.00 in - Calm Calm - N/A   Unknown
2:35 AM 54.5 °F 54.3 °F 99% 29.99 in - Calm Calm - N/A   Unknown
2:55 AM 53.6 °F 53.1 °F 98% 29.98 in - Calm Calm - N/A   Unknown
3:15 AM 53.8 °F 53.6 °F 99% 29.97 in - Calm Calm - N/A   Unknown
3:35 AM 54.1 °F 54.1 °F 100% 29.96 in - Calm Calm - N/A   Unknown
3:55 AM 54.5 °F 54.5 °F 100% 29.95 in - Calm Calm - N/A   Unknown
4:35 AM 54.9 °F 54.9 °F 100% 29.94 in - Calm Calm - N/A   Mostly Cloudy
4:55 AM 55.6 °F 55.4 °F 99% 29.93 in - Calm Calm - N/A   Overcast
5:15 AM 55.4 °F 55.2 °F 99% 29.91 in - Calm Calm - N/A   Mostly Cloudy
5:35 AM 55.4 °F 55.0 °F 99% 29.90 in - Calm Calm - N/A   Unknown
5:55 AM 55.6 °F 55.4 °F 99% 29.91 in - Calm Calm - N/A   Unknown
6:35 AM 55.8 °F 55.6 °F 99% 29.91 in - NW 4.6 mph - 0.01 in   Unknown
6:55 AM 55.9 °F 55.8 °F 99% 29.90 in - Calm Calm - 0.01 in   Overcast
7:15 AM 56.3 °F 55.9 °F 99% 29.89 in - Calm Calm - N/A   Unknown
7:35 AM 56.1 °F 56.1 °F 100% 29.86 in - NW 3.5 mph - N/A   Unknown
7:55 AM 56.3 °F 56.3 °F 100% 29.86 in - Calm Calm - 0.01 in   Unknown
8:15 AM 56.7 °F 56.5 °F 99% 29.85 in - Calm Calm - 0.01 in   Unknown
8:35 AM 57.2 °F 57.2 °F 100% 29.84 in - Calm Calm - 0.03 in   Overcast
9:15 AM 57.4 °F 57.4 °F 100% 29.81 in - North 3.5 mph - 0.02 in   Overcast
9:35 AM 57.9 °F 57.9 °F 100% 29.80 in - Calm Calm - 0.02 in   Overcast
10:15 AM 59.2 °F 59.2 °F 100% 29.77 in - NNE 4.6 mph - 0.01 in   Overcast
10:35 AM 60.3 °F 60.3 °F 100% 29.75 in - East 5.8 mph - 0.02 in   Overcast
10:55 AM 61.7 °F 61.7 °F 100% 29.73 in - ESE 4.6 mph - 0.02 in   Overcast
11:35 AM 62.4 °F 62.4 °F 100% 29.70 in 2.5 mi ESE 4.6 mph - 0.06 in   Overcast
11:55 AM 63.5 °F 63.5 °F 100% 29.68 in 4.0 mi ESE 8.1 mph - 0.08 in   Overcast
1:15 PM 64.6 °F 64.6 °F 100% 29.59 in 2.5 mi SE 10.4 mph - 0.06 in   Overcast
1:35 PM 64.8 °F 64.8 °F 100% 29.58 in 3.0 mi SSE 5.8 mph - 0.09 in   Overcast
1:55 PM 64.9 °F 64.9 °F 100% 29.57 in 4.0 mi SSE 6.9 mph - 0.16 in   Overcast
2:15 PM 61.2 °F 60.4 °F 97% 29.60 in 4.0 mi West 9.2 mph 26.5 mph 0.08 in   Overcast
2:35 PM 58.3 °F 57.7 °F 98% 29.58 in 5.0 mi WNW 4.6 mph - 0.14 in   Overcast
2:55 PM 58.6 °F 58.3 °F 99% 29.58 in 7.0 mi West 5.8 mph - 0.16 in   Overcast
3:35 PM 59.4 °F 58.6 °F 97% 29.56 in - West 8.1 mph - 0.01 in   Overcast
3:55 PM 59.4 °F 58.1 °F 96% 29.58 in - West 10.4 mph - 0.01 in   Overcast
4:15 PM 59.4 °F 57.4 °F 93% 29.57 in - West 5.8 mph - N/A   Overcast
4:35 PM 60.8 °F 58.1 °F 91% 29.57 in - WSW 9.2 mph - N/A   Overcast
4:55 PM 61.7 °F 57.2 °F 85% 29.57 in - WSW 9.2 mph 18.4 mph N/A   Overcast
5:15 PM 61.7 °F 56.8 °F 84% 29.56 in - WSW 5.8 mph - N/A   Scattered Clouds
5:35 PM 61.9 °F 57.2 °F 85% 29.56 in - WSW 8.1 mph - N/A   Clear
5:55 PM 61.9 °F 57.2 °F 85% 29.56 in 10.0 mi WSW 6.9 mph - N/A   Clear
6:15 PM 61.5 °F 57.0 °F 85% 29.58 in 10.0 mi West 5.8 mph - N/A   Clear
6:35 PM 61.0 °F 55.9 °F 83% 29.59 in - West 8.1 mph 16.1 mph N/A   Clear
6:55 PM 60.6 °F 54.9 °F 81% 29.59 in - West 6.9 mph - N/A   Clear
7:15 PM 59.5 °F 54.7 °F 84% 29.60 in - Calm Calm - N/A   Clear
7:35 PM 59.0 °F 54.5 °F 85% 29.61 in - WSW 6.9 mph - N/A   Clear
7:55 PM 59.0 °F 52.9 °F 80% 29.62 in - WSW 6.9 mph 16.1 mph N/A   Clear
8:15 PM 58.5 °F 50.2 °F 74% 29.64 in - West 10.4 mph 16.1 mph N/A   Clear
9:35 PM 55.6 °F 41.4 °F 59% 29.69 in 10.0 mi WSW 11.5 mph 17.3 mph N/A   Clear
9:55 PM 54.7 °F 40.6 °F 59% 29.69 in 10.0 mi WSW 8.1 mph - N/A   Clear
10:15 PM 54.0 °F 40.3 °F 60% 29.70 in 10.0 mi WSW 8.1 mph - N/A   Clear
10:35 PM 53.6 °F 40.1 °F 60% 29.71 in 10.0 mi West 8.1 mph - N/A   Clear
10:55 PM 52.9 °F 39.9 °F 61% 29.71 in 10.0 mi WSW 8.1 mph - N/A   Clear
11:15 PM 51.8 °F 40.3 °F 65% 29.72 in - SW 6.9 mph - N/A   Clear
11:35 PM 50.9 °F 40.3 °F 67% 29.73 in 10.0 mi WSW 9.2 mph - N/A   Clear